TimeEST,TemperatureF,Dew PointF,Humidity,Sea Level PressureIn,VisibilityMPH,Wind Direction,Wind SpeedMPH,Gust SpeedMPH,PrecipitationIn,Events,Conditions,WindDirDegrees,DateUTC
12:53 AM,19.0,6.1,57,30.18,10.0,NW,16.1,-,N/A,,Clear,320,2013-01-24 05:53:00
1:53 AM,18.0,8.1,65,30.23,10.0,NW,16.1,21.9,N/A,,Mostly Cloudy,320,2013-01-24 06:53:00
2:29 AM,19.4,10.4,68,30.23,1.5,NNW,18.4,-,0.00,Snow,Light Snow,340,2013-01-24 07:29:00
2:41 AM,17.6,10.4,73,30.24,3.0,North,15.0,24.2,0.00,Snow,Light Snow,360,2013-01-24 07:41:00
2:53 AM,17.1,8.1,68,30.30,10.0,North,16.1,-,0.00,,Mostly Cloudy,360,2013-01-24 07:53:00
3:53 AM,15.1,5.0,64,30.35,10.0,North,11.5,-,N/A,,Clear,350,2013-01-24 08:53:00
4:53 AM,14.0,1.9,59,30.38,10.0,North,11.5,-,N/A,,Clear,350,2013-01-24 09:53:00
5:53 AM,12.9,1.9,62,30.41,10.0,North,9.2,-,N/A,,Clear,350,2013-01-24 10:53:00
6:53 AM,10.9,1.9,67,30.46,10.0,NW,5.8,-,N/A,,Clear,320,2013-01-24 11:53:00
7:53 AM,10.0,1.9,70,30.49,10.0,NNW,4.6,-,N/A,,Clear,330,2013-01-24 12:53:00
8:53 AM,12.0,3.9,70,30.51,10.0,NNW,4.6,-,N/A,,Clear,330,2013-01-24 13:53:00
9:53 AM,15.1,5.0,64,30.57,10.0,North,9.2,-,N/A,,Clear,10,2013-01-24 14:53:00
10:53 AM,17.1,3.9,56,30.61,10.0,NNE,9.2,-,N/A,,Clear,30,2013-01-24 15:53:00
11:53 AM,19.0,3.0,50,30.61,10.0,East,6.9,-,N/A,,Clear,80,2013-01-24 16:53:00
12:53 PM,19.9,3.0,48,30.59,10.0,East,9.2,-,N/A,,Partly Cloudy,80,2013-01-24 17:53:00
1:53 PM,21.0,3.9,48,30.57,10.0,ESE,8.1,-,N/A,,Scattered Clouds,120,2013-01-24 18:53:00
2:53 PM,21.9,3.9,46,30.55,10.0,East,8.1,-,N/A,,Clear,80,2013-01-24 19:53:00
3:53 PM,21.9,5.0,48,30.55,10.0,ENE,8.1,-,N/A,,Partly Cloudy,70,2013-01-24 20:53:00
4:53 PM,21.9,5.0,48,30.54,10.0,East,6.9,-,N/A,,Clear,90,2013-01-24 21:53:00
5:53 PM,21.0,6.1,53,30.55,10.0,East,8.1,-,N/A,,Clear,80,2013-01-24 22:53:00
6:53 PM,19.9,6.1,55,30.53,10.0,East,8.1,-,N/A,,Clear,90,2013-01-24 23:53:00
7:53 PM,19.9,7.0,57,30.53,10.0,East,5.8,-,N/A,,Clear,100,2013-01-25 00:53:00
8:53 PM,19.9,8.1,60,30.51,10.0,ESE,9.2,-,N/A,,Clear,110,2013-01-25 01:53:00
9:53 PM,19.9,8.1,60,30.48,10.0,ESE,9.2,-,N/A,,Clear,120,2013-01-25 02:53:00
10:53 PM,19.9,7.0,57,30.47,10.0,SE,11.5,-,N/A,,Unknown,130,2013-01-25 03:53:00
11:53 PM,19.9,6.1,55,30.45,10.0,North,-9999.0,-,N/A,,Unknown,0,2013-01-25 04:53:00